Stations météo

Publicité
Sete, France (7641): Température de l'air & dewpoint: 17.01.2017 01:00:00 - 23.01.2017 01:00:00 (CET)Sete, France (7641): Vitesse du vent & gusts: 17.01.2017 01:00:00 - 23.01.2017 01:00:00 (CET)Sete, France (7641): Direction du vent: 17.01.2017 01:00:00 - 23.01.2017 01:00:00 (CET)Sete, France (7641): reduced air pressure: 17.01.2017 01:00:00 - 23.01.2017 01:00:00 (CET)Sete, France (7641): visibility: 17.01.2017 01:00:00 - 23.01.2017 01:00:00 (CET)Sete, France (7641): Quantités de précipitations: 17.01.2017 01:00:00 - 23.01.2017 01:00:00 (CET)
Date & Time tt [°C] td [°C] ff [km/h] ff [knt] fx [km/h] fx [knt] dd ppp [hPa] vv [km] rr [mm]
23.01.2017 01:00:00 8,1 5,0 26 14 38 21 N 1019,8 - 0,0
23.01.2017 00:00:00 8,6 4,8 18 10 34 18 N 1020,5 - 0,0
22.01.2017 23:00:00 8,5 4,1 21 11 36 19 N 1020,2 - 0,0
22.01.2017 22:00:00 8,7 3,9 26 14 42 23 NNE 1020,1 - 0,0
22.01.2017 21:00:00 8,3 2,9 24 13 39 21 N 1020,2 - 0,0
22.01.2017 20:00:00 8,1 1,5 20 11 34 19 N 1020,1 - 0,0
22.01.2017 19:00:00 7,4 3,1 19 10 34 18 N 1019,9 6 0,0
22.01.2017 18:00:00 8,0 3,6 23 12 34 19 N 1019,6 - 0,0
22.01.2017 17:00:00 7,6 4,5 18 10 36 19 N 1019,4 - 0,0
22.01.2017 16:00:00 7,1 4,7 26 14 39 21 N 1019,3 - 0,0
22.01.2017 15:00:00 6,5 5,0 28 15 41 22 N 1019,3 - 0,6
22.01.2017 14:00:00 7,3 3,2 25 13 51 28 N 1019,6 - 0,0
22.01.2017 13:00:00 7,6 3,6 31 17 53 28 NNE 1020,3 6 0,0
22.01.2017 12:00:00 5,6 4,1 30 16 46 25 N 1020,8 - 0,0
22.01.2017 11:00:00 5,5 3,3 31 17 47 25 N 1021,0 - 1,2
22.01.2017 10:00:00 4,5 2,4 30 16 49 26 NNE 1021,2 - 0,8
22.01.2017 09:00:00 5,5 -0,1 29 16 47 25 NNE 1020,7 - 0,0
22.01.2017 08:00:00 4,3 -1,9 28 15 39 21 N 1020,4 - 0,0
22.01.2017 07:00:00 3,8 -1,6 21 11 35 19 N 1020,4 - 0,2
22.01.2017 06:00:00 5,4 -3,2 18 10 42 23 NE 1020,6 - 0,0
22.01.2017 05:00:00 6,7 -5,3 18 10 34 18 N 1019,2 - 0,0
22.01.2017 04:00:00 6,9 -5,5 24 13 42 23 N 1019,2 15 0,0
22.01.2017 03:00:00 6,7 -5,6 22 12 36 19 NNE 1019,6 - 0,0
22.01.2017 02:00:00 7,5 -5,6 21 12 36 20 N 1020,0 - 0,0
22.01.2017 01:00:00 7,9 -5,9 23 12 37 20 N 1020,5 - 0,0
22.01.2017 00:00:00 7,6 -5,5 24 13 35 19 N 1020,7 - 0,0
21.01.2017 23:00:00 8,4 -5,8 26 14 41 22 N 1020,9 - 0,0
21.01.2017 22:00:00 8,3 -5,2 22 12 34 18 NNE 1020,8 - 0,0
21.01.2017 21:00:00 7,8 -4,0 21 12 31 17 N 1020,6 - 0,0
21.01.2017 20:00:00 8,4 -3,5 19 10 31 17 NNE 1020,7 - 0,0
21.01.2017 19:00:00 9,6 -3,4 14 7 23 13 NE 1020,5 15 0,0
21.01.2017 18:00:00 10,5 -4,0 14 8 21 11 N 1020,1 - 0,0
21.01.2017 17:00:00 11,4 -3,5 12 7 26 14 N 1020,0 - 0,0
21.01.2017 16:00:00 12,2 -4,9 16 8 29 16 NNE 1020,0 - 0,0
21.01.2017 15:00:00 12,4 -4,3 15 8 29 16 NNE 1020,5 - 0,0
21.01.2017 14:00:00 11,9 -3,1 11 6 23 12 NE 1021,4 - 0,0
21.01.2017 13:00:00 10,4 -2,3 12 6 33 18 NE 1022,1 12 0,0
21.01.2017 12:00:00 10,0 -4,0 24 13 41 22 NNE 1023,0 - 0,0
21.01.2017 11:00:00 8,5 -3,4 21 12 42 23 NNE 1023,8 - 0,0
21.01.2017 10:00:00 7,4 -3,8 25 14 44 24 NNE 1023,6 12 0,0
21.01.2017 09:00:00 5,6 -3,2 24 13 41 22 N 1023,5 - 0,0
21.01.2017 08:00:00 5,6 -3,5 29 16 46 25 N 1023,2 - 0,0
21.01.2017 07:00:00 4,3 -3,0 28 15 44 24 NNE 1023,3 15 0,0
21.01.2017 06:00:00 4,0 -2,6 29 16 45 24 NNE 1023,6 - 0,0
21.01.2017 05:00:00 3,9 -2,1 23 13 36 19 NNE 1024,0 - 0,0
21.01.2017 04:00:00 5,6 -2,3 23 12 35 19 NNE 1024,1 15 0,0
21.01.2017 03:00:00 6,6 -2,1 24 13 37 20 NNE 1024,2 - 0,0
21.01.2017 02:00:00 7,2 -0,5 25 14 39 21 NNE 1024,5 - 0,0
21.01.2017 01:00:00 7,1 -1,1 26 14 44 24 NNE 1024,9 - 0,0
21.01.2017 00:00:00 6,9 -1,0 23 12 38 21 NNE 1025,8 - 0,0
20.01.2017 23:00:00 6,9 -1,8 24 13 41 22 NNE 1025,9 - 0,0
20.01.2017 22:00:00 6,2 -1,7 24 13 40 22 NNE 1026,0 - 0,0
20.01.2017 21:00:00 6,6 -1,3 26 14 37 20 NNE 1025,8 - 0,0
20.01.2017 20:00:00 7,3 -1,4 26 14 38 20 NNE 1025,4 - 0,0
20.01.2017 19:00:00 8,1 -1,7 26 14 36 19 NNE 1025,2 - 0,0
20.01.2017 18:00:00 8,3 -1,5 22 12 37 20 NE 1025,2 - 0,0
20.01.2017 17:00:00 8,4 -1,4 23 12 40 22 NE 1025,2 - 0,0
20.01.2017 16:00:00 8,7 -1,4 24 13 39 21 NE 1025,3 12 0,0
20.01.2017 15:00:00 8,4 -1,7 25 13 45 24 NE 1025,3 - 0,0
20.01.2017 14:00:00 7,9 -1,4 24 13 47 25 NE 1025,7 - 0,0
20.01.2017 13:00:00 7,2 -2,3 25 13 48 26 NE 1026,5 12 0,0
20.01.2017 12:00:00 6,0 -3,4 29 15 50 27 NE 1026,9 - 0,0
20.01.2017 11:00:00 4,9 -4,1 30 16 53 28 NNE 1027,2 - 0,0
20.01.2017 10:00:00 4,3 -4,7 29 16 47 25 NNE 1027,1 12 0,0
20.01.2017 09:00:00 4,3 -5,5 27 15 45 24 NNE 1026,5 - 0,0
20.01.2017 08:00:00 3,4 -5,5 25 13 40 22 NNE 1026,4 - 0,0
20.01.2017 07:00:00 4,2 -5,1 26 14 41 22 N 1026,2 - 0,0
20.01.2017 06:00:00 4,0 -5,2 23 12 39 21 N 1026,4 - 0,0
20.01.2017 05:00:00 3,4 -5,8 25 13 42 23 N 1026,6 - 0,0
20.01.2017 04:00:00 3,1 -6,1 24 13 39 21 N 1026,9 15 0,0
20.01.2017 03:00:00 2,8 -6,4 27 15 42 23 N 1027,2 - 0,0
20.01.2017 02:00:00 2,7 -5,9 24 13 42 23 NNE 1026,9 - 0,0
20.01.2017 01:00:00 2,9 -6,0 26 14 42 23 N 1027,1 - 0,0
20.01.2017 00:00:00 1,8 -5,6 26 14 40 22 NNE 1027,4 - 0,0
19.01.2017 23:00:00 2,8 -5,4 22 12 35 19 N 1027,2 - 0,0
19.01.2017 22:00:00 3,7 -5,0 17 9 26 14 NNE 1027,3 - 0,0
19.01.2017 21:00:00 3,8 -4,2 15 8 24 13 NNE 1027,1 - 0,0
19.01.2017 20:00:00 5,2 -2,6 16 8 23 12 N 1026,6 - 0,0
19.01.2017 19:00:00 5,2 -3,6 3 2 10 6 ESE 1026,4 15 0,0
19.01.2017 18:00:00 6,6 -4,5 10 6 14 8 WNW 1025,6 - 0,0
19.01.2017 17:00:00 6,5 -4,0 3 2 10 5 NW 1025,7 - 0,0
19.01.2017 16:00:00 7,0 -3,8 6 3 18 10 NE 1025,7 - 0,0
19.01.2017 15:00:00 6,7 -4,1 8 5 17 9 ENE 1025,7 - 0,0
19.01.2017 14:00:00 6,6 -5,1 6 4 16 9 ENE 1025,8 - 0,0
19.01.2017 13:00:00 6,1 -6,2 11 6 27 15 N 1026,4 - 0,0
19.01.2017 12:00:00 4,1 -6,5 16 9 26 14 N 1027,0 - 0,0
19.01.2017 11:00:00 2,6 -8,2 13 7 25 14 N 1027,2 - 0,0
19.01.2017 10:00:00 2,9 -6,8 3 2 9 5 ENE 1026,9 12 0,0
19.01.2017 09:00:00 0,3 -6,6 3 2 6 3 N 1026,6 - 0,0
19.01.2017 08:00:00 -0,1 -7,2 0 0 22 12 N 1026,2 - 0,0
19.01.2017 07:00:00 0,6 -8,6 21 11 39 21 NW 1025,5 15 0,0
19.01.2017 06:00:00 0,4 -8,6 16 9 36 19 NW 1025,3 - 0,0
19.01.2017 05:00:00 -0,5 -7,8 27 15 38 21 NW 1025,1 - 0,0
19.01.2017 04:00:00 -0,2 -7,5 26 14 41 22 NW 1025,3 - 0,0
19.01.2017 03:00:00 -0,6 -7,2 29 16 41 22 NW 1025,2 - 0,0
19.01.2017 02:00:00 -0,2 -7,0 26 14 39 21 NW 1024,8 - 0,0
19.01.2017 01:00:00 0,1 -7,0 21 11 33 18 NW 1024,8 - 0,0
19.01.2017 00:00:00 0,5 -7,0 23 12 31 17 NW 1024,6 - 0,0
18.01.2017 23:00:00 0,9 -6,7 20 11 27 14 NW 1024,5 - 0,0
18.01.2017 22:00:00 1,1 -6,7 14 7 26 14 NW 1024,5 - 0,0
18.01.2017 21:00:00 1,3 -6,5 15 8 29 16 NNW 1024,1 - 0,0
18.01.2017 20:00:00 2,0 -6,8 13 7 25 14 NNW 1023,9 - 0,0
18.01.2017 19:00:00 2,8 -6,4 10 5 23 13 NNW 1023,4 18 0,0
18.01.2017 18:00:00 4,0 -6,6 13 7 23 12 NW 1022,8 - 0,0
18.01.2017 17:00:00 4,8 -7,1 10 5 21 11 NW 1022,4 - 0,0
18.01.2017 16:00:00 5,2 -7,7 8 4 26 14 NW 1022,2 18 0,0
18.01.2017 15:00:00 5,0 -8,2 14 8 32 17 NNW 1022,3 - 0,0
18.01.2017 14:00:00 4,8 -8,0 12 6 29 15 NW 1022,5 - 0,0
18.01.2017 13:00:00 3,8 -8,9 11 6 29 16 NNW 1023,0 - 0,0
18.01.2017 12:00:00 3,0 -8,4 12 6 30 16 NNW 1023,4 - 0,0
18.01.2017 11:00:00 1,6 -8,5 14 8 37 20 NW 1023,7 - 0,0
18.01.2017 10:00:00 0,3 -8,7 22 12 40 22 NNW 1023,0 18 0,0
18.01.2017 09:00:00 -0,7 -8,9 24 13 45 24 NW 1022,6 - 0,0
18.01.2017 08:00:00 -1,0 -9,1 24 13 39 21 NW 1021,9 - 0,0
18.01.2017 07:00:00 -1,1 -9,0 14 8 29 16 NW 1022,3 - 0,0
18.01.2017 06:00:00 -1,0 -8,9 17 9 40 22 NW 1021,9 - 0,0
18.01.2017 05:00:00 -0,7 -8,6 24 13 46 25 NNW 1022,0 - 0,0
18.01.2017 04:00:00 -0,7 -8,4 23 12 38 21 NNW 1022,1 - 0,0
18.01.2017 03:00:00 -0,4 -8,4 22 12 36 20 NW 1022,2 - 0,0
18.01.2017 02:00:00 -0,2 -7,9 22 12 36 20 NW 1022,0 - 0,0
18.01.2017 01:00:00 -0,4 -8,1 18 10 40 22 NNW 1022,1 - 0,0
18.01.2017 00:00:00 -0,2 -8,2 14 8 31 17 NNW 1022,4 - 0,0
17.01.2017 23:00:00 0,0 -8,2 14 8 36 20 NNW 1022,1 - 0,0
17.01.2017 22:00:00 0,3 -8,4 16 9 35 19 NNW 1021,7 - 0,0
17.01.2017 21:00:00 0,4 -8,1 16 9 28 15 NNW 1021,5 - 0,0
17.01.2017 20:00:00 1,0 -8,5 16 8 31 17 N 1021,2 - 0,0
17.01.2017 19:00:00 2,0 -9,6 19 10 32 17 N 1020,4 20 0,0
17.01.2017 18:00:00 2,6 -9,4 11 6 27 14 N 1020,0 - 0,0
17.01.2017 17:00:00 3,7 -10,0 16 8 34 18 NNE 1019,3 - 0,0
17.01.2017 16:00:00 4,3 -10,6 16 9 31 17 NNE 1018,7 - 0,0
17.01.2017 15:00:00 4,7 -11,0 15 8 26 14 N 1018,5 - 0,0
17.01.2017 14:00:00 5,0 -10,8 11 6 26 14 NNW 1018,7 - 0,0
17.01.2017 13:00:00 4,4 -10,5 16 9 47 25 N 1019,1 20 0,0
17.01.2017 12:00:00 3,3 -10,7 21 11 48 26 N 1019,4 - 0,0
17.01.2017 11:00:00 2,1 -10,4 25 14 53 29 N 1019,5 - 0,0
17.01.2017 10:00:00 1,7 -9,9 13 7 33 18 NNW 1019,3 - 0,0
17.01.2017 09:00:00 0,5 -10,4 12 6 33 18 NW 1018,8 - 0,0
17.01.2017 08:00:00 -0,4 -9,8 12 7 36 19 NNW 1018,1 - 0,0
17.01.2017 07:00:00 -0,5 -9,2 15 8 32 18 NNW 1017,9 20 0,0
17.01.2017 06:00:00 -0,3 -9,2 12 6 39 21 NNW 1017,5 - 0,0
17.01.2017 05:00:00 -0,2 -10,2 14 8 40 21 NNW 1017,6 - 0,0
17.01.2017 04:00:00 0,5 -9,8 13 7 39 21 N 1017,8 20 0,0
17.01.2017 03:00:00 0,7 -9,1 13 7 37 20 N 1017,6 - 0,0
17.01.2017 02:00:00 1,2 -9,2 16 9 44 24 N 1017,6 - 0,0
17.01.2017 01:00:00 1,6 -8,8 22 12 41 22 NNW 1017,7 - 0,0

tt = Température de l'air
td = dewpoint
ff = Vitesse du vent
fx = gusts
dd = Direction du vent
ppp = reduced air pressure
vv = visibility
rr = Quantités de précipitations

stations d'obs. à proximité